Terminal Aerodrome Forecast
Issued by NWS Mobile, AL

Home | Current Version | Previous Version | Text Only | Print | Product List | Glossary On
Versions: 1 2 3 4 5 6 7 8 9 10 11 12 13 14 15 16 17 18 19 20 21 22 23 24 25 26 27 28 29 30 31 32 33 34 35 36 37 38 39 40 41 42 43 44 45 46
000
FTUS44 KMOB 230801 AAA
TAFPNS
TAF AMD
KPNS 230801Z 2308/2406 08004KT 2SM BR SCT009
      TEMPO 2308/2312 1/4SM FG VV002
     FM231500 12008KT 5SM BR BKN015
     FM231800 14010KT P6SM OVC025=

USA.gov is the U.S. government's official web portal to all federal, state and local government web resources and services.